Back to catalog

CZ-6A DEB

AlivePO
NORAD 61109·DEBRIS·🇨🇳 China

Launched Aug 6, 2024 from Taiyuan Satellite Launch Center

Loading…

Next Passes (next 24 hours)

TLE

FreshSource: Space-Track

Epoch: Sep 14, 2026, 07:23 UTC

1 61109U 24140PB  26257.30766632  .00000182  00000-0  77686-4 0  9992
2 61109  89.0736 271.6210 0041697 279.7105  79.9377 14.20575027105099

Track CZ-6A DEB in real time with AllMySat

Download on the App Store